Flag for USA

Past Weather in Linden, New Jersey, USA — Yesterday and Last 2 Weeks

Now
61 °F

More clouds than sun.


Feels Like: 61 °F
Forecast: 79 / 57 °F
Wind: 3 mph from Southwest

Location: Newark International Airport
Current Time: Sep 24, 2020 at 8:59:21 am
Latest Report: Sep 24, 2020 at 7:51 am
Visibility: 10 mi
Pressure29.98 "Hg
Humidity: 72%
Dew Point: 52 °F
Location of LindenLocation

Past Weather in Linden — Graph

°F

Linden Temperature Yesterday

Maximum temperature yesterday: 82 °F (at 2:51 pm)
Minimum temperature yesterday: 55 °F (at 6:51 am)
Average temperature yesterday: 70 °F

High & Low Weather Summary for the Past Weeks

 TemperatureHumidityPressure
High84 °F (Sep 10, 2:51 pm)97% (Sep 10, 3:51 am)30.58 "Hg (Sep 10, 3:51 am)
Low46 °F (Sep 21, 2:51 am)20% (Sep 22, 4:51 pm)29.82 "Hg (Sep 23, 3:51 pm)
Average66 °F61%30.18 "Hg
* Reported Sep 9 7:51 am — Sep 24 7:51 am, Linden. Weather by CustomWeather, © 2020

Note: Actual official high and low records may vary slightly from our data, if they occured in-between our weather recording intervals... More about our weather records

Linden Weather History for the Previous 24 Hours

Scroll right to see more
 ConditionsComfort  
Time TempWeatherWind HumidityBarometerVisibility
7:51 am
Thu, Sep 24
61 °FMore clouds than sun.3 mph72%29.98 "Hg10 mi
6:51 am61 °FBroken clouds.No wind70%29.96 "Hg10 mi
5:51 am61 °FPassing clouds.5 mph70%29.94 "Hg10 mi
4:51 am62 °FPassing clouds.3 mph67%29.93 "Hg10 mi
3:51 am61 °FPassing clouds.No wind70%29.93 "Hg10 mi
2:51 am64 °FPassing clouds.8 mph63%29.93 "Hg10 mi
1:51 am65 °FPassing clouds.No wind61%29.92 "Hg10 mi
12:51 am66 °FClear.8 mph61%29.92 "Hg10 mi
11:51 pm
Wed, Sep 23
64 °FClear.5 mph68%29.91 "Hg10 mi
10:51 pm69 °FClear.No wind57%29.91 "Hg10 mi
9:51 pm73 °FClear.No wind50%29.91 "Hg10 mi
8:51 pm75 °FClear.6 mph45%29.89 "Hg10 mi
7:51 pm74 °FClear.3 mph45%29.87 "Hg10 mi
6:51 pm78 °FPassing clouds.7 mph36%29.85 "Hg10 mi
5:51 pm80 °FPassing clouds.10 mph34%29.83 "Hg10 mi
4:51 pm82 °FPassing clouds.15 mph33%29.83 "Hg10 mi
3:51 pm81 °FPassing clouds.18 mph35%29.82 "Hg10 mi
2:51 pm82 °FPassing clouds.15 mph35%29.82 "Hg10 mi
1:51 pm80 °FPassing clouds.15 mph38%29.84 "Hg10 mi
12:51 pm79 °FSunny.18 mph38%29.85 "Hg10 mi
11:51 am76 °FSunny.15 mph42%29.87 "Hg10 mi
10:51 am74 °FSunny.13 mph40%29.88 "Hg10 mi
9:51 am69 °FPassing clouds.13 mph45%29.90 "Hg10 mi
8:51 am62 °FPassing clouds.9 mph56%29.90 "Hg10 mi
Weather by CustomWeather, © 2020

See weather overview